Weather History for King Cove AP, King Cove, AK, AK

Change the Weather History Date:

Sunday, January 12, 2014

  Actual Average Record
Temperature  
Mean Temperature 37 °F -  
Max Temperature 39 °F - - ()
Min Temperature 35 °F - - ()
Degree Days  
Heating Degree Days 28    
Moisture  
Dew Point 29 °F    
Average Humidity 72    
Maximum Humidity 87    
Minimum Humidity 57    
Precipitation  
Precipitation 0.04 in - - ()
Sea Level Pressure  
Sea Level Pressure 29.15 in    
Wind  
Wind Speed 25 mph (WSW)    
Max Wind Speed 32 mph    
Max Gust Speed 46 mph    
Visibility 8 miles    
Events Snow    
T = Trace of Precipitation, MM = Missing Value Source: NWS Daily Summary

Daily Weather History Graph

Daily Weather History Graph

Search for Another Location

Airport:

Trip Planner

Search our weather history database for the weather conditions in past years. The results will help you decide how hot, cold, wet, or windy it might be!

Date:

Astronomy

Jan. 12, 2014 Rise Set
Actual Time 10:08 AM AKST 5:47 PM AKST
Civil Twilight 9:24 AM AKST 6:31 PM AKST
Nautical Twilight 8:38 AM AKST 7:17 PM AKST
Astronomical Twilight 7:54 AM AKST 8:01 PM AKST
Moon 3:28 PM AKST (1/12) 7:12 AM AKST (1/12)
Length of Visible Light 9h 06m
Length of Day
7h 39m
Waxing Gibbous, 90% of the Moon is Illuminated
Jan 12
Waxing Gibbous
Jan 15
Full
Jan 23
Last Quarter
Jan 30
New
Feb 6
First Quarter

Hourly Weather History & Observations

Time (AKST) Temp. Windchill Dew Point Humidity Pressure Visibility Wind Dir Wind Speed Gust Speed Precip Events Conditions
12:56 AM 38.8 °F 27.3 °F 30.0 °F 71% 29.04 in 10.0 mi WSW 27.6 mph 40.3 mph N/A   Mostly Cloudy
1:36 AM 37.4 °F 26.1 °F 28.4 °F 70% 29.02 in 10.0 mi WSW 24.2 mph 40.3 mph N/A   Mostly Cloudy
1:56 AM 38.8 °F 28.5 °F 30.0 °F 71% 29.03 in 10.0 mi WSW 21.9 mph 40.3 mph N/A   Mostly Cloudy
3:56 AM 36.9 °F 24.2 °F 31.1 °F 80% 29.06 in 5.0 mi SW 29.9 mph 39.1 mph 0.00 in Snow Light Snow
4:08 AM 35.6 °F 23.7 °F 30.2 °F 81% 29.05 in 5.0 mi SW 24.2 mph 42.6 mph 0.00 in Snow Light Snow
4:56 AM 37.9 °F 25.7 °F 29.1 °F 71% 29.06 in 10.0 mi WSW 29.9 mph 40.3 mph 0.00 in   Mostly Cloudy
5:56 AM 37.4 °F 27.2 °F 26.6 °F 65% 29.05 in 8.0 mi WSW 19.6 mph 31.1 mph N/A Snow Light Snow
6:09 AM 37.4 °F 26.9 °F 28.4 °F 70% 29.05 in 10.0 mi West 20.7 mph 31.1 mph 0.00 in   Mostly Cloudy
6:56 AM 36.9 °F 26.2 °F 26.1 °F 65% 29.06 in 10.0 mi WSW 20.7 mph 32.2 mph 0.00 in   Mostly Cloudy
7:56 AM 36.9 °F 26.8 °F 28.0 °F 70% 29.07 in 10.0 mi WSW 18.4 mph 26.5 mph 0.00 in Snow Light Snow
8:12 AM 37.4 °F 26.9 °F 26.6 °F 65% 29.06 in 10.0 mi WSW 20.7 mph 29.9 mph 0.00 in   Mostly Cloudy
8:56 AM 37.4 °F 25.4 °F 26.6 °F 65% 29.09 in 10.0 mi SW 27.6 mph 34.5 mph N/A   Mostly Cloudy
9:56 AM 37.9 °F 25.9 °F 26.1 °F 62% 29.11 in 10.0 mi WSW 28.8 mph 38.0 mph 0.00 in   Mostly Cloudy
10:56 AM 38.8 °F 28.3 °F 25.2 °F 58% 29.13 in 10.0 mi WSW 23.0 mph 38.0 mph N/A   Scattered Clouds
11:56 AM 37.9 °F 25.9 °F 24.1 °F 57% 29.15 in 10.0 mi WSW 28.8 mph 42.6 mph N/A   Partly Cloudy
12:56 PM 38.8 °F 28.5 °F 30.0 °F 71% 29.16 in 10.0 mi WSW 21.9 mph 31.1 mph 0.00 in   Mostly Cloudy
1:17 PM 37.4 °F 26.6 °F 28.4 °F 70% 29.14 in 10.0 mi WSW 21.9 mph 35.7 mph 0.00 in Snow Light Snow
1:56 PM 38.8 °F 27.8 °F 31.1 °F 74% 29.15 in 10.0 mi WSW 25.3 mph 43.7 mph 0.00 in   Overcast
2:18 PM 37.4 °F 25.6 °F 32.0 °F 81% 29.16 in 1.8 mi SW 26.5 mph 40.3 mph 0.00 in Snow Light Snow
2:26 PM 37.4 °F 27.2 °F 32.0 °F 81% 29.15 in 4.0 mi WSW 19.6 mph 29.9 mph 0.00 in Snow Light Snow
2:56 PM 37.9 °F 27.9 °F 32.9 °F 82% 29.15 in 10.0 mi WSW 19.6 mph 27.6 mph 0.00 in   Overcast
3:56 PM 37.9 °F 25.3 °F 32.9 °F 82% 29.14 in 2.0 mi WSW 32.2 mph 42.6 mph 0.02 in Snow Light Snow
4:16 PM 37.4 °F 25.0 °F 33.8 °F 87% 29.14 in 4.0 mi WSW 29.9 mph 42.6 mph 0.01 in Snow Light Snow
4:22 PM 37.4 °F 26.1 °F 33.8 °F 87% 29.15 in 2.5 mi West 24.2 mph 46.0 mph 0.01 in Snow Light Snow
4:36 PM 35.6 °F 24.5 °F 32.0 °F 87% 29.16 in 1.8 mi West 20.7 mph 28.8 mph 0.02 in Snow Light Snow
4:41 PM 35.6 °F 25.9 °F 32.0 °F 87% 29.17 in 3.0 mi West 16.1 mph 28.8 mph 0.02 in Snow Light Snow
4:56 PM 37.9 °F 28.5 °F 32.0 °F 79% 29.19 in 10.0 mi WSW 17.3 mph 29.9 mph 0.02 in Snow Light Snow
5:56 PM 39.2 °F 28.3 °F 30.2 °F 70% 29.22 in 10.0 mi WSW 25.3 mph 41.4 mph N/A   Overcast
6:56 PM 39.9 °F 29.7 °F 31.1 °F 71% 29.24 in 10.0 mi WSW 23.0 mph 41.4 mph N/A   Overcast
7:38 PM 39.2 °F 27.2 °F 28.4 °F 65% 29.26 in 10.0 mi SW 31.1 mph 43.7 mph N/A   Mostly Cloudy
7:56 PM 38.8 °F 26.5 °F 29.1 °F 68% 29.28 in 10.0 mi SW 32.2 mph 40.3 mph N/A   Mostly Cloudy
8:56 PM 38.8 °F 26.7 °F 27.1 °F 63% 29.31 in 10.0 mi WSW 31.1 mph 38.0 mph N/A   Mostly Cloudy
9:56 PM 38.8 °F 28.8 °F 29.1 °F 68% 29.32 in 10.0 mi WSW 20.7 mph 35.7 mph N/A   Scattered Clouds
10:56 PM 37.9 °F 27.9 °F 29.1 °F 71% 29.32 in 10.0 mi WSW 19.6 mph 35.7 mph N/A   Partly Cloudy
11:56 PM 37.4 °F 27.5 °F 28.4 °F 70% 29.34 in 10.0 mi WSW 18.4 mph 27.6 mph N/A   Mostly Cloudy